TimeAKDT,TemperatureF,Dew PointF,Humidity,Sea Level PressureIn,VisibilityMPH,Wind Direction,Wind SpeedMPH,Gust SpeedMPH,PrecipitationIn,Events,Conditions,WindDirDegrees,DateUTC
12:53 AM,37.9,33.1,83,30.00,10.0,SW,3.5,-,N/A,,Clear,220,2013-06-14 08:53:00
1:53 AM,37.0,33.1,86,30.00,10.0,SSW,3.5,-,N/A,,Clear,210,2013-06-14 09:53:00
2:53 AM,39.0,35.1,86,30.00,10.0,SW,8.1,-,N/A,,Clear,230,2013-06-14 10:53:00
3:53 AM,39.0,36.0,89,30.01,10.0,SW,8.1,-,N/A,,Clear,220,2013-06-14 11:53:00
4:53 AM,39.0,36.0,89,30.01,10.0,SW,6.9,-,N/A,,Clear,220,2013-06-14 12:53:00
5:31 AM,39.2,35.6,87,30.00,8.0,SW,9.2,-,N/A,,Scattered Clouds,220,2013-06-14 13:31:00
5:41 AM,39.2,37.4,93,30.00,3.0,SW,11.5,-,N/A,,Mostly Cloudy,230,2013-06-14 13:41:00
5:48 AM,39.2,37.4,93,30.00,2.0,SW,9.2,-,N/A,,Mostly Cloudy,230,2013-06-14 13:48:00
5:53 AM,39.9,37.0,89,30.00,4.0,SW,8.1,-,N/A,,Mostly Cloudy,220,2013-06-14 13:53:00
6:04 AM,39.2,37.4,93,30.00,10.0,SSW,6.9,-,N/A,,Scattered Clouds,200,2013-06-14 14:04:00
6:53 AM,41.0,36.0,82,30.01,10.0,SW,11.5,-,N/A,,Clear,230,2013-06-14 14:53:00
7:53 AM,37.9,34.0,86,30.02,10.0,WSW,10.4,-,N/A,,Clear,240,2013-06-14 15:53:00
8:53 AM,37.9,33.1,83,30.02,10.0,WSW,10.4,-,N/A,,Clear,250,2013-06-14 16:53:00
9:53 AM,37.9,33.1,83,30.04,10.0,WSW,9.2,-,N/A,,Clear,250,2013-06-14 17:53:00
10:53 AM,39.0,33.1,79,30.04,10.0,WSW,6.9,-,N/A,,Clear,250,2013-06-14 18:53:00
11:53 AM,41.0,34.0,76,30.05,10.0,SW,5.8,-,N/A,,Clear,230,2013-06-14 19:53:00
12:53 PM,39.9,33.1,77,30.05,10.0,West,5.8,-,N/A,,Clear,280,2013-06-14 20:53:00
1:53 PM,42.1,34.0,73,30.05,10.0,WNW,8.1,-,N/A,,Clear,300,2013-06-14 21:53:00
2:53 PM,42.1,33.1,70,30.06,10.0,NNW,8.1,-,N/A,,Clear,330,2013-06-14 22:53:00
3:53 PM,43.0,34.0,71,30.06,10.0,NNW,6.9,-,N/A,,Clear,340,2013-06-14 23:53:00
4:53 PM,43.0,34.0,71,30.06,10.0,NNW,6.9,-,N/A,,Clear,340,2013-06-15 00:53:00
5:09 PM,44.6,35.6,71,30.05,2.5,NNW,8.1,-,N/A,,Haze,340,2013-06-15 01:09:00
5:18 PM,44.6,35.6,71,30.05,7.0,North,8.1,-,N/A,,Clear,350,2013-06-15 01:18:00
5:53 PM,46.9,36.0,66,30.06,10.0,NNW,8.1,-,N/A,,Clear,340,2013-06-15 01:53:00
6:53 PM,46.0,37.0,71,30.05,10.0,North,8.1,-,N/A,,Clear,360,2013-06-15 02:53:00
7:53 PM,43.0,35.1,74,30.06,10.0,NNW,8.1,-,N/A,,Clear,340,2013-06-15 03:53:00
8:53 PM,42.1,35.1,76,30.07,10.0,North,3.5,-,N/A,,Mostly Cloudy,360,2013-06-15 04:53:00
9:53 PM,37.0,30.9,79,30.08,10.0,NNW,5.8,-,N/A,,Overcast,330,2013-06-15 05:53:00
10:53 PM,43.0,36.0,76,30.08,10.0,North,3.5,-,N/A,,Overcast,360,2013-06-15 06:53:00
11:53 PM,41.0,36.0,82,30.08,10.0,North,3.5,-,0.00,Rain,Light Rain,350,2013-06-15 07:53:00